User: anonymous   Login
Location: Pleiades Observatory
(40.1297°N, 91.5238°W)
Time: 01:17:33
(UTC-05:00)
Language:

Cosmos 1842 Rocket - Orbit

View from above orbital plane
View from above orbital plane
View from above satellite
View from above satellite

Ground track
Ground track

The orbit data is extracted from the following two-line orbital elements,

1 17912U 87038B   14297.82428873  .00000740  00000-0  88966-4 0  4987
2 17912 082.5039 236.8228 0021168 168.1419 192.0299 14.82469275484521
Epoch (UTC): 24 October 2014 19:46:58
Eccentricity: 0.0021168
inclination: 82.5039°
perigee height: 607 km
apogee height: 636 km
right ascension of ascending node: 236.8228°
argument of perigee: 168.1419°
revolutions per day: 14.82469275
mean anomaly at epoch: 192.0299°
orbit number at epoch: 48452

The dashed part of the orbit path shows where the satellite is in the earth's shadow,  

DLR